Location: Altmatt
(47.1333°N, 8.7000°E)
Time: 01:42:14
(UTC+00:00)

Cosmos 1605 Rocket - Pass Details

Date: 13 July 2020
Orbit: 944 x 1007 km, 82.9° (Epoch: 11 August)

Event Time Altitude Azimuth Distance (km) Brightness Sun altitude
Exits shadow 23:27:21 33° 147° (SSE) 1,585 4.7 -21.2°
Maximum altitude 23:29:50 52° 91° (E) 1,213 4.4 -21.2°
Drops below altitude 10° 23:35:51 10° 18° (NNE) 2,730 7.4 -21.2°
Sets 23:38:25 0° 13° (NNE) 3,672 8.5 -21.2°
